Regional Weather Roundup
Issued by NWS Mt. Holly, NJ

Home | Current Version | Previous Version | Text Only | Print | Product List | Glossary On
Versions: 1 2 3 4 5 6 7 8 9 10 11 12 13 14 15 16 17 18 19 20 21 22 23 24 25 26 27
000
ASUS41 KPHI 230810
RWRPHI

REGIONAL WEATHER ROUNDUP
NATIONAL WEATHER SERVICE MOUNT HOLLY NJ
400 AM EDT WED APR 23 2014

NOTE:  "FAIR" INDICATES FEW OR NO CLOUDS BELOW 12,000 FEET WITH NO
SIGNIFICANT WEATHER AND/OR OBSTRUCTIONS TO VISIBILITY.

 * = STATION DOES NOT REPORT PRECIPITATION (E.G. RAIN, SNOW, ETC.)
        OR FOG.

NJZ015>026-230900-
SOUTHERN NEW JERSEY

CITY           SKY/WX    TMP DP  RH WIND       PRES   REMARKS
POMONA         CLOUDY    54  33  45 W20G29    29.59R
RIO GRANDE*      N/A    N/A N/A N/A MISG        N/A
MILLVILLE      CLOUDY    52  35  52 NW23G31   29.64R
WRIGHTSTOWN    CLOUDY    51  35  54 NW13G28   29.57R
MOUNT HOLLY    CLOUDY    50  33  52 W14G28    29.61R
TRENTON        MOCLDY    50  32  50 NW13G31   29.58R

$$
NJZ001>014-230900-
NORTHERN NEW JERSEY

CITY           SKY/WX    TMP DP  RH WIND       PRES   REMARKS
SUSSEX         CLOUDY    50  42  74 N10G21    29.56R HAZE
ANDOVER*         N/A     49  40  71 N9G17     29.56R
MORRISTOWN     CLOUDY    55  45  67 NW9       29.53R
NEWARK         CLOUDY    57  45  64 NW12      29.51S
TETERBORO      PTCLDY    56  43  61 NW7       29.50S
CALDWELL       PTCLDY    53  44  71 NW5       29.53R
SOMERVILLE     PTCLDY    51  36  56 NW9       29.53R
ALLAIRE*       CLOUDY    55  39  54 W12G23    29.53S
TOMS RIVER*    CLOUDY    54  34  47 W18       29.56R

$$
PAZ043-044-047-054-055-060>062-066>071-230900-
EASTERN PENNSYLVANIA

CITY           SKY/WX    TMP DP  RH WIND       PRES   REMARKS
PHILADELPHIA   MOCLDY    51  31  46 W12G26    29.63S
NORTH PHILA    MOCLDY    50  32  50 NW16G25   29.61S
BLUE BELL      PTCLDY    48  34  57 W7        29.62R
DOYLESTOWN     PTCLDY    47  33  58 NW16G28   29.59R
QUAKERTOWN*    CLOUDY    46  32  57 W8        29.62R
POTTSTOWN      MOCLDY    46  34  62 W6G20     29.64R
LANCASTER      CLEAR     44  33  65 W10       29.66R
COATESVILLE    CLEAR     45  32  61 NW14      29.64F
READING        MOCLDY    48  33  56 W10       29.64R
ALLENTOWN      CLOUDY    48  31  51 W13G24    29.61R
MOUNT POCONO   CLOUDY    41  30  65 NW14G24   29.56S
HAZLETON       CLOUDY    43  32  65 W10G26    29.62F
WILKES BARRE   CLOUDY    45  32  60 W16       29.60S

$$
DEZALL-MDZ008-012-015-019-020-230900-
DELAWARE AND EASTERN MARYLAND

CITY           SKY/WX    TMP DP  RH WIND       PRES   REMARKS
WILMINGTON     PTCLDY    50  33  52 NW14G29   29.65R
DOVER          CLOUDY    53  35  49 NW22G28   29.62R
GEORGETOWN     CLOUDY    57  36  45 W12G22    29.64R
EASTON         CLOUDY    55  38  51 N21G29    29.72R
PATUXENT       CLOUDY    56  41  57 NW20      29.68R
OCEAN CITY     MOCLDY    57  44  62 NW14G31   29.63R
WALLOPS ISLAND MOCLDY    60  52  74 N14       29.64R
CAMBRIDGE      CLOUDY    55  36  47 NW17G25   29.67R
SALISBURY      CLOUDY    57  38  48 NW18G28   29.65R

$$
PAZ001-021-NYZ056-072-MDZ011-DCZ001-230900-
OTHER NEARBY LOCATIONS

CITY           SKY/WX    TMP DP  RH WIND       PRES   REMARKS
HARRISBURG     PTCLDY    49  35  58 NW13      29.67S
STATE COLLEGE  MOCLDY    42  29  60 NW14G25   29.71R
WILLIAMSPORT   CLOUDY    46  32  58 W14       29.65S
BINGHAMTON     CLOUDY    40  33  76 NW7       29.58S
NEW YORK CITY  CLOUDY    56  43  61 VRB6      29.53S
BALTIMORE      PTCLDY    50  33  52 NW24G33   29.67S
WASHINGTON DC  PTCLDY    55  34  45 NW21G29   29.69F

$$



USA.gov is the U.S. government's official web portal to all federal, state and local government web resources and services.